Location: Arborea
(39.7744°N, 8.5819°E)
Time: 02:35:03
(UTC+00:00)

USA 229 - Pass Details

Date: 05 June 2022
Orbit: 938 x 1274 km, 63.4° (Epoch: 24 May)

Event Time Altitude Azimuth Distance (km) Brightness Sun altitude
Rises 22:23:05 0° 322° (NW) 4,023 7.8 -26.0°
Reaches altitude 10° 22:25:46 10° 318° (NW) 3,103 6.9 -26.1°
Maximum altitude 22:33:04 56° 243° (WSW) 1,436 4.2 -26.5°
Enters shadow 22:34:44 48° 202° (SSW) 1,580 4.2 -26.5°
